When you browse on this site, cookies collect data to enhance your experience and personalize the content and advertising you see.
Visit our Privacy Policy to learn more. By continuing to use the site, you agree to this use of cookies and data.

Hourly Weather Soacha

Today, 5 August, Wednesday

Time Temperature Precipitation Wind Pressure Humidity
00:00 +12°C° 0 mm 1 mps 561 mmHg 85%
01:00 +11°C° 0 mm 1 mps 561 mmHg 85%
02:00 +11°C° 0 mm 1 mps 561 mmHg 86%
03:00 +11°C° 0 mm 1 mps 560 mmHg 86%
04:00 +11°C° 0 mm 1 mps 560 mmHg 87%
05:00 +11°C° 0 mm 1 mps 560 mmHg 85%
06:00 +12°C° 0 mm 1 mps 561 mmHg 84%
07:00 +12°C° 0 mm 1 mps 561 mmHg 83%
08:00 +14°C° 0 mm 1 mps 562 mmHg 78%
09:00 +15°C° 0 mm 1 mps 563 mmHg 73%
10:00 +16°C° 0 mm 1 mps 564 mmHg 67%
11:00 +18°C° 0.3 mm 1 mps 563 mmHg 67%
12:00 +18°C° 0.3 mm 1 mps 563 mmHg 67%
13:00 +18°C° 0.3 mm 1 mps 563 mmHg 67%
14:00 +18°C° 0.4 mm 1 mps 562 mmHg 69%
15:00 +18°C° 0.4 mm 1 mps 561 mmHg 70%
16:00 +16°C° 0.4 mm 1 mps 561 mmHg 72%
17:00 +15°C° 0.2 mm 1 mps 561 mmHg 76%
18:00 +14°C° 0.2 mm 1 mps 560 mmHg 80%
19:00 +13°C° 0.2 mm 1 mps 560 mmHg 84%
20:00 +13°C° 0 mm 1 mps 560 mmHg 84%
21:00 +12°C° 0 mm 1 mps 561 mmHg 84%
22:00 +12°C° 0 mm 1 mps 561 mmHg 83%
23:00 +12°C° 0 mm 1 mps 561 mmHg 83%

Tomorrow, 6 August, Thursday

Time Temperature Precipitation Wind Pressure Humidity
00:00 +11°C° 0 mm 1 mps 560 mmHg 84%
01:00 +11°C° 0 mm 1 mps 560 mmHg 84%
02:00 +11°C° 0 mm 1 mps 560 mmHg 84%
03:00 +11°C° 0 mm 1 mps 560 mmHg 84%
04:00 +11°C° 0 mm 1 mps 560 mmHg 84%
05:00 +12°C° 0 mm 1 mps 560 mmHg 84%
06:00 +12°C° 0 mm 1 mps 560 mmHg 84%
07:00 +12°C° 0 mm 1 mps 561 mmHg 84%
08:00 +13°C° 0.1 mm 1 mps 561 mmHg 82%
09:00 +14°C° 0.1 mm 1 mps 562 mmHg 79%
10:00 +15°C° 0.1 mm 1 mps 563 mmHg 77%
11:00 +15°C° 0.2 mm 1 mps 562 mmHg 77%
12:00 +15°C° 0.2 mm 1 mps 562 mmHg 77%
13:00 +15°C° 0.2 mm 1 mps 561 mmHg 78%
14:00 +15°C° 0.2 mm 1 mps 561 mmHg 76%
15:00 +15°C° 0.2 mm 1 mps 560 mmHg 75%
16:00 +15°C° 0.2 mm 1 mps 560 mmHg 74%
17:00 +14°C° 0.1 mm 1 mps 560 mmHg 78%
18:00 +13°C° 0.1 mm 1 mps 560 mmHg 82%
19:00 +12°C° 0.1 mm 1 mps 560 mmHg 86%
20:00 +12°C° 0 mm 1 mps 561 mmHg 85%
21:00 +13°C° 0 mm 1 mps 561 mmHg 83%
22:00 +13°C° 0 mm 2 mps 562 mmHg 82%
23:00 +12°C° 0 mm 1 mps 561 mmHg 84%

Day after tomorrow, 7 August, Friday

Time Temperature Precipitation Wind Pressure Humidity
00:00 +12°C° 0 mm 1 mps 561 mmHg 85%
01:00 +11°C° 0 mm 1 mps 560 mmHg 86%
02:00 +11°C° 0.1 mm 1 mps 560 mmHg 86%
03:00 +11°C° 0.1 mm 1 mps 560 mmHg 85%
04:00 +11°C° 0.1 mm 1 mps 560 mmHg 85%
05:00 +12°C° 0 mm 1 mps 560 mmHg 85%
06:00 +12°C° 0 mm 1 mps 561 mmHg 85%
07:00 +12°C° 0 mm 1 mps 561 mmHg 85%
08:00 +13°C° 0.1 mm 1 mps 562 mmHg 83%
09:00 +14°C° 0.1 mm 1 mps 562 mmHg 81%
10:00 +14°C° 0.1 mm 1 mps 563 mmHg 79%
11:00 +15°C° 0.2 mm 1 mps 562 mmHg 77%
12:00 +15°C° 0.2 mm 1 mps 562 mmHg 75%
13:00 +16°C° 0.2 mm 1 mps 562 mmHg 73%
14:00 +16°C° 0.2 mm 1 mps 561 mmHg 74%
15:00 +15°C° 0.2 mm 1 mps 561 mmHg 76%
16:00 +15°C° 0.2 mm 1 mps 560 mmHg 77%
17:00 +14°C° 0.1 mm 1 mps 560 mmHg 79%
18:00 +13°C° 0.1 mm 1 mps 560 mmHg 81%
19:00 +13°C° 0.1 mm 2 mps 561 mmHg 83%
20:00 +12°C° 0 mm 2 mps 561 mmHg 83%
21:00 +12°C° 0 mm 2 mps 561 mmHg 82%
22:00 +12°C° 0 mm 2 mps 562 mmHg 82%
23:00 +12°C° 0 mm 2 mps 561 mmHg 82%

8 August, Saturday

Time Temperature Precipitation Wind Pressure Humidity
00:00 +12°C° 0 mm 1 mps 561 mmHg 83%
01:00 +12°C° 0 mm 1 mps 561 mmHg 83%
02:00 +12°C° 0 mm 1 mps 561 mmHg 83%
03:00 +12°C° 0 mm 1 mps 561 mmHg 84%
04:00 +12°C° 0 mm 1 mps 561 mmHg 84%
05:00 +12°C° 0.1 mm 1 mps 561 mmHg 84%
06:00 +12°C° 0.1 mm 1 mps 561 mmHg 84%
07:00 +12°C° 0.1 mm 1 mps 562 mmHg 84%
08:00 +13°C° 0.1 mm 1 mps 562 mmHg 83%
09:00 +14°C° 0.1 mm 1 mps 563 mmHg 81%
10:00 +15°C° 0.1 mm 1 mps 563 mmHg 79%
11:00 +15°C° 0.3 mm 1 mps 563 mmHg 78%
12:00 +15°C° 0.3 mm 1 mps 563 mmHg 77%
13:00 +16°C° 0.3 mm 2 mps 562 mmHg 77%
14:00 +15°C° 0.3 mm 1 mps 562 mmHg 77%
15:00 +15°C° 0.3 mm 1 mps 561 mmHg 78%
16:00 +15°C° 0.3 mm 1 mps 561 mmHg 78%
17:00 +14°C° 0.1 mm 1 mps 561 mmHg 81%
18:00 +13°C° 0.1 mm 1 mps 561 mmHg 84%
19:00 +12°C° 0.1 mm 1 mps 561 mmHg 87%
20:00 +12°C° 0 mm 1 mps 561 mmHg 88%
21:00 +12°C° 0 mm 1 mps 561 mmHg 88%
22:00 +10°C° 0 mm 2 mps 561 mmHg 88%
23:00 +10°C° 0 mm 2 mps 561 mmHg 88%

9 August, Sunday

Time Temperature Precipitation Wind Pressure Humidity
00:00 +10°C° 0 mm 2 mps 561 mmHg 89%
01:00 +10°C° 0 mm 2 mps 560 mmHg 89%
02:00 +10°C° 0 mm 2 mps 560 mmHg 88%
03:00 +10°C° 0 mm 2 mps 560 mmHg 87%
04:00 +11°C° 0 mm 1 mps 560 mmHg 86%
05:00 +12°C° 0.1 mm 1 mps 561 mmHg 85%
06:00 +12°C° 0.1 mm 1 mps 561 mmHg 85%
07:00 +12°C° 0.1 mm 1 mps 562 mmHg 84%
08:00 +13°C° 0.1 mm 1 mps 562 mmHg 81%
09:00 +14°C° 0.1 mm 1 mps 563 mmHg 78%
10:00 +15°C° 0.1 mm 1 mps 563 mmHg 75%
11:00 +16°C° 0.2 mm 1 mps 563 mmHg 74%
12:00 +16°C° 0.2 mm 1 mps 562 mmHg 72%
13:00 +18°C° 0.2 mm 1 mps 562 mmHg 70%
14:00 +18°C° 0.2 mm 1 mps 561 mmHg 70%
15:00 +16°C° 0.2 mm 1 mps 561 mmHg 71%
16:00 +16°C° 0.2 mm 1 mps 560 mmHg 71%
17:00 +15°C° 0.1 mm 1 mps 560 mmHg 76%
18:00 +14°C° 0.1 mm 2 mps 560 mmHg 80%
19:00 +13°C° 0.1 mm 2 mps 560 mmHg 84%
20:00 +12°C° 0 mm 2 mps 560 mmHg 84%
21:00 +12°C° 0 mm 2 mps 560 mmHg 84%
22:00 +10°C° 0 mm 2 mps 560 mmHg 83%
23:00 +10°C° 0 mm 2 mps 560 mmHg 83%

10 August, Monday

Time Temperature Precipitation Wind Pressure Humidity
00:00 +10°C° 0 mm 2 mps 560 mmHg 83%
01:00 +11°C° 0 mm 1 mps 559 mmHg 83%
02:00 +10°C° 0 mm 1 mps 559 mmHg 83%
03:00 +10°C° 0 mm 1 mps 559 mmHg 83%
04:00 +10°C° 0 mm 1 mps 559 mmHg 83%
05:00 +11°C° 0 mm 1 mps 559 mmHg 83%
06:00 +11°C° 0 mm 1 mps 560 mmHg 82%
07:00 +12°C° 0 mm 2 mps 560 mmHg 81%
08:00 +14°C° 0 mm 1 mps 562 mmHg 73%
09:00 +16°C° 0 mm 1 mps 563 mmHg 66%
10:00 +19°C° 0 mm 1 mps 564 mmHg 59%
11:00 +20°C° 0.1 mm 1 mps 563 mmHg 58%
12:00 +19°C° 0.1 mm 2 mps 563 mmHg 57%
13:00 +20°C° 0.1 mm 2 mps 563 mmHg 56%
14:00 +20°C° 0.2 mm 2 mps 562 mmHg 58%
15:00 +20°C° 0.2 mm 1 mps 561 mmHg 61%
16:00 +20°C° 0.2 mm 1 mps 560 mmHg 63%
17:00 +18°C° 0.2 mm 1 mps 560 mmHg 70%
18:00 +15°C° 0.2 mm 1 mps 560 mmHg 76%
19:00 +14°C° 0.2 mm 1 mps 559 mmHg 83%
20:00 +13°C° 0 mm 1 mps 559 mmHg 82%
21:00 +13°C° 0 mm 2 mps 560 mmHg 82%
22:00 +13°C° 0 mm 2 mps 560 mmHg 82%
23:00 +12°C° 0 mm 1 mps 560 mmHg 82%
Show more